TimeCDT,TemperatureF,Dew PointF,Humidity,Sea Level PressureIn,VisibilityMPH,Wind Direction,Wind SpeedMPH,Gust SpeedMPH,PrecipitationIn,Events,Conditions,WindDirDegrees,DateUTC
12:15 AM,78.8,68.0,69,29.69,10.0,South,11.5,-,N/A,,Clear,180,2013-09-19 05:15:00
12:35 AM,79.2,67.6,68,29.69,10.0,South,15.0,18.4,N/A,,Clear,180,2013-09-19 05:35:00
12:55 AM,79.0,67.6,68,29.69,10.0,South,13.8,-,N/A,,Clear,180,2013-09-19 05:55:00
1:15 AM,78.4,67.5,69,29.69,10.0,South,12.7,-,N/A,,Clear,180,2013-09-19 06:15:00
1:35 AM,78.1,67.3,69,29.69,10.0,South,12.7,-,N/A,,Clear,180,2013-09-19 06:35:00
1:55 AM,77.4,67.1,71,29.70,10.0,South,11.5,-,N/A,,Clear,190,2013-09-19 06:55:00
2:15 AM,77.2,67.1,71,29.70,10.0,South,10.4,-,N/A,,Clear,180,2013-09-19 07:15:00
2:35 AM,76.6,67.1,72,29.70,10.0,South,10.4,-,N/A,,Clear,180,2013-09-19 07:35:00
2:55 AM,75.7,66.7,74,29.70,10.0,South,10.4,-,N/A,,Clear,190,2013-09-19 07:55:00
3:15 AM,76.1,66.4,72,29.69,10.0,South,11.5,-,N/A,,Clear,180,2013-09-19 08:15:00
3:35 AM,76.1,66.2,71,29.69,10.0,South,10.4,-,N/A,,Clear,180,2013-09-19 08:35:00
3:55 AM,75.9,66.2,72,29.69,10.0,South,10.4,-,N/A,,Clear,180,2013-09-19 08:55:00
4:15 AM,75.4,65.8,72,29.68,10.0,South,9.2,-,N/A,,Clear,190,2013-09-19 09:15:00
4:35 AM,74.5,65.5,73,29.67,10.0,South,10.4,-,N/A,,Clear,190,2013-09-19 09:35:00
4:55 AM,75.4,64.9,70,29.67,10.0,SSW,11.5,-,N/A,,Clear,200,2013-09-19 09:55:00
5:15 AM,75.2,64.6,69,29.66,10.0,SSW,12.7,-,N/A,,Clear,200,2013-09-19 10:15:00
5:35 AM,75.6,63.9,67,29.66,10.0,SSW,12.7,-,N/A,,Clear,210,2013-09-19 10:35:00
5:55 AM,76.1,63.5,65,29.67,10.0,SSW,11.5,-,N/A,Thunderstorm,Clear,200,2013-09-19 10:55:00
6:15 AM,76.3,63.0,63,29.67,10.0,SSW,10.4,-,N/A,,Clear,200,2013-09-19 11:15:00
6:35 AM,75.2,63.5,67,29.69,10.0,South,11.5,-,N/A,,Clear,190,2013-09-19 11:35:00
6:55 AM,74.7,63.1,67,29.70,10.0,SSW,5.8,-,N/A,,Clear,210,2013-09-19 11:55:00
7:15 AM,73.9,63.5,70,29.70,10.0,SSW,8.1,-,N/A,,Clear,200,2013-09-19 12:15:00
7:35 AM,74.1,63.5,69,29.70,10.0,South,9.2,-,N/A,,Clear,180,2013-09-19 12:35:00
7:55 AM,73.4,64.0,72,29.71,10.0,WSW,3.5,-,N/A,,Clear,250,2013-09-19 12:55:00
8:15 AM,75.4,64.4,69,29.74,10.0,WSW,8.1,18.4,N/A,,Scattered Clouds,250,2013-09-19 13:15:00
8:35 AM,75.7,64.8,69,29.75,10.0,West,11.5,-,N/A,,Clear,280,2013-09-19 13:35:00
8:55 AM,76.3,65.1,68,29.75,10.0,WNW,6.9,-,N/A,,Clear,290,2013-09-19 13:55:00
9:15 AM,76.8,65.1,67,29.75,10.0,West,5.8,-,N/A,,Clear,260,2013-09-19 14:15:00
9:35 AM,78.4,64.6,62,29.75,10.0,West,10.4,-,N/A,,Clear,260,2013-09-19 14:35:00
9:55 AM,78.8,63.7,60,29.76,10.0,West,10.4,-,N/A,,Clear,260,2013-09-19 14:55:00
10:15 AM,79.5,63.1,57,29.75,10.0,West,6.9,-,N/A,,Clear,280,2013-09-19 15:15:00
10:35 AM,78.3,63.3,60,29.75,10.0,Calm,Calm,-,N/A,,Scattered Clouds,0,2013-09-19 15:35:00
10:55 AM,78.4,64.6,62,29.80,10.0,West,8.1,-,N/A,Rain,Light Rain,280,2013-09-19 15:55:00
11:15 AM,77.9,64.2,63,29.82,10.0,West,8.1,-,N/A,,Overcast,260,2013-09-19 16:15:00
11:35 AM,79.2,63.7,59,29.82,10.0,WSW,8.1,16.1,N/A,,Mostly Cloudy,250,2013-09-19 16:35:00
11:55 AM,77.7,62.2,59,29.83,10.0,WSW,9.2,17.3,N/A,Rain,Light Rain,240,2013-09-19 16:55:00
12:15 PM,74.8,64.4,70,29.84,10.0,WSW,8.1,-,N/A,Rain,Light Rain,250,2013-09-19 17:15:00
12:35 PM,73.2,65.7,77,29.82,10.0,North,3.5,-,0.01,Rain-Thunderstorm,Light Thunderstorms and Rain,350,2013-09-19 17:35:00
12:55 PM,72.1,67.1,84,29.78,10.0,NNE,3.5,-,0.02,Rain,Light Rain,30,2013-09-19 17:55:00
1:15 PM,72.7,67.5,84,29.80,10.0,WSW,4.6,-,N/A,Rain,Light Rain,240,2013-09-19 18:15:00
1:35 PM,73.4,68.4,84,29.83,10.0,WSW,6.9,-,N/A,,Mostly Cloudy,240,2013-09-19 18:35:00
1:55 PM,74.7,68.5,81,29.82,10.0,West,6.9,-,N/A,,Scattered Clouds,280,2013-09-19 18:55:00
2:15 PM,75.4,67.6,77,29.82,10.0,NW,8.1,-,N/A,,Scattered Clouds,310,2013-09-19 19:15:00
2:35 PM,75.4,66.9,75,29.80,10.0,NNW,8.1,-,N/A,,Mostly Cloudy,330,2013-09-19 19:35:00
2:55 PM,77.5,65.5,66,29.79,10.0,WNW,9.2,-,N/A,,Mostly Cloudy,300,2013-09-19 19:55:00
3:15 PM,77.2,64.9,66,29.80,10.0,NW,8.1,-,N/A,,Overcast,310,2013-09-19 20:15:00
3:35 PM,76.1,63.7,65,29.80,10.0,NNW,8.1,-,N/A,,Overcast,340,2013-09-19 20:35:00
3:55 PM,76.1,63.9,66,29.82,10.0,NNW,10.4,-,N/A,,Overcast,340,2013-09-19 20:55:00
4:15 PM,75.9,63.9,66,29.82,10.0,NW,9.2,-,N/A,,Overcast,320,2013-09-19 21:15:00
4:35 PM,76.6,63.0,62,29.82,10.0,NNW,12.7,16.1,N/A,,Mostly Cloudy,330,2013-09-19 21:35:00
4:55 PM,75.7,63.1,65,29.83,10.0,NW,10.4,18.4,0.01,,Scattered Clouds,320,2013-09-19 21:55:00
5:15 PM,75.2,61.0,61,29.83,10.0,NNW,12.7,18.4,N/A,,Mostly Cloudy,330,2013-09-19 22:15:00
5:35 PM,74.7,59.4,59,29.85,10.0,NW,18.4,27.6,N/A,,Overcast,310,2013-09-19 22:35:00
5:55 PM,73.0,46.9,39,29.85,10.0,NNW,11.5,27.6,N/A,,Mostly Cloudy,330,2013-09-19 22:55:00
6:15 PM,72.5,47.1,40,29.85,10.0,NW,13.8,20.7,N/A,,Scattered Clouds,320,2013-09-19 23:15:00
6:35 PM,72.1,46.4,40,29.85,10.0,NW,16.1,28.8,N/A,,Clear,310,2013-09-19 23:35:00
6:55 PM,70.5,46.4,42,29.86,10.0,NW,16.1,27.6,N/A,,Clear,310,2013-09-19 23:55:00
7:15 PM,69.3,46.0,43,29.86,10.0,NW,15.0,26.5,N/A,,Clear,320,2013-09-20 00:15:00
7:35 PM,68.9,45.9,44,29.86,10.0,NNW,12.7,18.4,N/A,,Clear,340,2013-09-20 00:35:00
7:55 PM,68.9,45.9,44,29.87,10.0,NNW,11.5,-,N/A,,Scattered Clouds,330,2013-09-20 00:55:00
8:15 PM,67.5,48.0,50,29.86,10.0,NNW,9.2,-,N/A,Rain,Light Rain,330,2013-09-20 01:15:00
8:35 PM,66.6,48.4,52,29.87,10.0,NNW,8.1,-,N/A,,Mostly Cloudy,330,2013-09-20 01:35:00
8:55 PM,65.7,48.7,54,29.90,10.0,WNW,11.5,17.3,N/A,,Scattered Clouds,300,2013-09-20 01:55:00
9:15 PM,64.2,49.1,58,29.91,10.0,WNW,10.4,20.7,N/A,,Clear,300,2013-09-20 02:15:00
9:35 PM,63.0,49.1,61,29.92,10.0,NNW,11.5,-,N/A,,Scattered Clouds,330,2013-09-20 02:35:00
9:55 PM,63.0,49.5,61,29.94,10.0,NNW,6.9,-,N/A,,Clear,330,2013-09-20 02:55:00
10:15 PM,61.9,50.4,66,29.95,10.0,WNW,5.8,-,N/A,,Clear,300,2013-09-20 03:15:00
10:35 PM,61.0,51.6,71,29.96,10.0,WNW,3.5,-,N/A,,Scattered Clouds,290,2013-09-20 03:35:00
10:55 PM,59.7,52.2,76,29.97,10.0,WSW,3.5,-,N/A,,Clear,250,2013-09-20 03:55:00
11:15 PM,59.4,52.9,79,29.97,10.0,West,3.5,-,N/A,,Scattered Clouds,280,2013-09-20 04:15:00
11:35 PM,59.7,52.9,78,29.98,10.0,WNW,6.9,-,N/A,,Scattered Clouds,300,2013-09-20 04:35:00
11:55 PM,60.4,52.9,76,29.98,10.0,Calm,Calm,-,N/A,,Mostly Cloudy,0,2013-09-20 04:55:00